www.pogodaiklimat.ru

Погода и климат >> Архив погоды >> Россия >> Якутия >> Делянкир


ПОГОДА в Делянкире

  • Прогноз погоды в Делянкире
  • Монитор погоды в Делянкире

АРХИВ ПОГОДЫ в Делянкире

Время (UTC), дата Ветер
(напр.,м/с)
 
Видим.   Явления Облачность Т
(С)
Тd
(С)
f
(%)
Тe
(С)
Тes
(С)
Комфортность P
(гПа)
Po
(гПа)
Тmin
(С)
Tmax
(С)
R
(мм)
R24
(мм)
S
(см)
09 12.07 СЗ 2 50 км 10/10 1000 м
[Sc]
+16.6 +12.8 78 +17 +17 1008.2 918.5 +18.3
12 12.07 С 1 50 км 9/8 1000 м
[Sc As trans]
+15.8 +13.7 87 +16 +16 1008.4 918.5
15 12.07 З 1 50 км {дождь} 10/10 1000 м
[Sc]
+6.3 +4.2 86 +5 +5 1012.0 918.6
18 12.07 штиль 0 50 км {дождь} 10/10 1000 м
[Sc]
+10.8 +10.0 95 +10 +10 1010.4 918.7
21 12.07 Ю 1 50 км 9/9 1000 м
[Sc]
+14.2 +13.1 93 +14 +15 1009.2 918.7 +5.9 0.9
00 13.07 ЮВ 1 50 км 8/8 1000 м
[Cu Sc]
+19.8 +13.1 65 +23 +25 комфорт 1007.4 918.7
03 13.07 З 1 50 км 8/8 1000 м
[Cu med, cong]
+20.7 +12.8 61 +24 +27 комфорт 1007.0 918.6
06 13.07 З 1 50 км 6/6 1000 м
[Cu med, cong]
+23.8 +12.5 49 +26 +29 жарко 1004.8 917.5
09 13.07 50 км н/о +24.6 +12.0 45 +26 +27 жарко 1004.0 917.0 +25.0
12 13.07 штиль 0 50 км 6/6 1000 м
[Sc]
+18.4 +13.5 73 +19 +19 1006.1 917.2
15 13.07 ЮВ 1 50 км 8/8 1000 м
[Sc]
+11.8 +6.3 69 +12 +12 1009.2 917.8
18 13.07 ЮЗ 1 50 км 6/6 1000 м
[Sc]
+7.9 +3.2 72 +7 +7 1010.7 918.0
21 13.07 В 1 50 км 6/0
[Ac As]
+13.4 +5.6 59 +14 +16 1009.3 918.4 +7.4
00 14.07 штиль 0 50 км 6/3 1000 м
[Cu med, cong As trans]
+21.6 +12.9 58 +24 +31 комфорт 1005.5 917.5
03 14.07 ЮЗ 1 50 км осадки на расстоянии 6/6 600 м
[Cb cap]
+24.8 +11.6 44 +26 +32 жарко 1005.7 916.1
06 14.07 С 1 50 км 8/5 1000 м
[Cu med, cong As trans]
+25.2 +11.0 41 +26 +29 жарко 1001.9 915.2
09 14.07 З 2 50 км осадки на расстоянии 8/5 600 м
[Cb cap As trans]
+25.4 +10.6 39 +26 +27 жарко 1000.6 914.0 +27.3
12 14.07 Ю 1 50 км 4/3 1000 м
[Sc As trans]
+15.2 +12.1 82 +16 +16 1003.9 914.2
15 14.07 СВ 1 50 км 4/3 1000 м
[Sc As trans]
+7.0 +4.5 84 +6 +6 1007.0 914.4
18 14.07 ЮВ 1 50 км 6/4 1000 м
[Sc As trans]
+8.4 +5.8 84 +8 +8 1006.5 914.4
21 14.07 штиль 0 50 км 8/8 1000 м
[Sc]
+11.6 +9.4 86 +11 +12 1005.4 914.4 +7.0
00 15.07 СЗ 1 50 км 8/5 1000 м
[Sc As trans]
+21.2 +11.5 54 +23 +27 комфорт 1002.2 914.4
03 15.07 З 1 50 км 6/6 600 м
[Cb cap]
+23.4 +12.0 49 +26 +32 жарко 1000.6 913.5
06 15.07 В 2 50 км осадки на расстоянии 8/8 600 м
[Sc]
+24.7 +11.9 45 +26 +28 жарко 999.7 913.1
09 15.07 В 1 20 км слаб. дождь 10/10 1000 м
[Sc]
+17.4 +15.2 87 +18 +18 1002.6 913.8 +27.3 5
12 15.07 С 1 20 км слаб. дождь 9/9 600 м
[Cb cap]
+13.1 +12.5 96 +13 +13 1005.6 915.2
15 15.07 Ю 1 50 км {дождь} 9/9 1000 м
[Sc]
+9.4 +7.5 88 +9 +9 1007.9 915.9
18 15.07 ЮЗ 1 50 км {дождь} 10/10 1000 м
[Sc]
+7.6 +5.1 84 +7 +7 1008.8 916.2
21 15.07 З 1 50 км 9/9 1000 м
[Sc]
+12.3 +8.3 77 +12 +13 1007.9 916.8 +7.1 2
00 16.07 З 1 50 км 6/4 600 м
[Cb cap Ac trans]
+16.0 +9.3 64 +17 +22 1006.8 917.0
03 16.07 В 1 50 км 6/6 1000 м
[Cu med, cong]
+17.4 +8.5 56 +18 +24 1005.4 916.1
06 16.07 В 1 50 км 8/5 1000 м
[Cu med, cong As trans]
+20.4 +7.6 44 +23 +25 комфорт 1003.4 915.2
09 16.07 ЮВ 1 50 км 6/3 1000 м
[Cu hum As trans]
+18.6 +5.3 42 +20 +21 1002.9 914.1 +23.1
12 16.07 В 1 50 км 9/9 1000 м
[Sc]
+14.9 +9.7 71 +15 +15 1004.4 914.5
15 16.07 СВ 2 50 км 8/8 1000 м
[Sc]
+9.8 +5.9 77 +8 +8 1006.2 914.5
18 16.07 В 2 50 км 8/8 1000 м
[Sc]
+7.2 +3.2 76 +5 +5 1007.3 914.6
21 16.07 штиль 0 50 км 8/6 1000 м
[Sc As trans]
+9.3 +6.3 82 +9 +10 1006.7 914.8 +6.9
00 17.07 ЮВ 1 50 км 8/8 1000 м
[Sc]
+15.8 +7.6 58 +17 +19 1003.1 913.5
03 17.07 штиль 0 50 км 8/5 1000 м
[Cu hum As trans]
+18.1 +8.2 52 +18 +23 1000.3 911.7
06 17.07 В 2 50 км {ливн. осадки} 10/8 600 м
[Cb cap As op]
+13.8 +9.3 74 +13 +14 1000.9 911.0
09 17.07 В 1 50 км 9/3 1000 м
[Sc As trans]
+15.8 +8.3 61 +17 +17 999.9 910.6 +20.4 6
12 17.07 ЮВ 2 50 км {ливн. осадки} 8/8 600 м
[Cb cap]
+10.2 +8.8 91 +9 +9 1002.4 911.3
15 17.07 ЮВ 1 50 км 8/8 1000 м
[Sc]
+6.1 +4.2 88 +5 +5 1004.3 911.5
18 17.07 В 1 50 км 10/8 1000 м
[Sc As op]
+4.7 +2.5 86 +3 +3 1007.1 911.8
21 17.07 В 1 50 км {дождь} 10/6 1000 м
[Sc As op]
+8.4 +7.1 92 +8 +8 999.5 907.9 +4.3 7
00 18.07 В 1 20 км дождь 10/4 1000 м
[Sc As op]
+10.7 +9.3 91 +10 +12 997.6 907.1
03 18.07 ЮВ 1 50 км {дождь} 9/9 1000 м
[Sc]
+12.9 +10.8 87 +13 +14 995.9 906.3
06 18.07 В 1 50 км {дождь} 9/9 1000 м
[Sc]
+15.5 +11.6 78 +16 +17 995.9 907.0
09 18.07 В 1 50 км 10/10 1000 м
[Sc]
+14.4 +12.2 87 +15 +15 996.8 907.5 +15.9 2
12 18.07 З 3 50 км 10/10 1000 м
[Sc]
+12.1 +9.2 82 +11 +11 999.6 909.3
15 18.07 ЮЗ 2 20 км слаб. дождь 10/10 1000 м
[Sc]
+9.0 +7.1 88 +7 +7 1003.2 911.5
18 18.07 В 2 20 км слаб. дождь 10/10 1000 м
[Sc]
+6.7 +5.3 91 +4 +4 1004.6 912.1
21 18.07 С 1 10 км сильн. дождь 10/10 1000 м
[Sc]
+3.8 +3.3 97 +2 +2 1006.1 912.5 +3.8 13
00 19.07 С 1 20 км слаб. дождь 10/10 1000 м
[Sc]
+4.6 +3.6 93 +3 +3 1007.0 913.5
03 19.07 С 1 20 км слаб. дождь 10/10 1000 м
[Sc]
+5.2 +4.3 94 +4 +4 1007.3 914.0

 

Местоположение метеостанции Делянкир (Якутия, Россия): широта 63.83 долгота 145.60 высота над уровнем моря 801 м.

В архиве по умолчанию представлена погода в Делянкире за последнюю неделю. Архивные данные за месяц целиком и за предыдущие месяцы, начиная с января 2011 года, Вы можете получить, выбрав интересующий диапазон дат из раскрывающегося списка и нажав кнопку "Ввод!".


*Определитесь, кто Вы:
робот инопланетянин человек

Внимание! Время в таблицах - всемирное. Для получения местного времени необходимо прибавить поправку, которая равна 10 ч.

Смотрите также архив погоды в соседних городах и на ближайших метеорологических станциях:

Погода в Оймяконе (Якутия, Россия) (140 км)
Погода в Усть-Нере (Якутия, Россия) (144 км)
Погода в Сусумане (Магаданская область, Россия) (171 км)
Погода в Юртах (Якутия, Россия) (187 км)
Погода в Агаякане (Якутия, Россия) (201 км)
Погода в Колымской (Магаданская область, Россия) (242 км)
Погода в Ягодной (Магаданская область, Россия) (249 км)
Погода в Совхозе Эльген (Магаданская область, Россия) (275 км)
Погода на Озере Джека Лондона (Магаданская область, Россия) (277 км)
Погода в Восточной (Якутия, Россия) (305 км)

Пояснения к столбцам:

Ветер - указаны скорость ветра в м/с - средняя за 10 мин, порывы в срок и между сроками (в фигурных скобках) и направление, откуда дует ветер: С - северный, СВ - северо-восточный, В - восточный, ЮВ - юго-восточный, Ю - южный, ЮЗ - юго-западный, З - западный, СЗ - северо-западный.
Видимость - горизонтальная дальность видимости в метрах или километрах. При видимости от 1 до 10 км при отсутствии осадков обычно наблюдается дымка, при ухудшении видимости до 1 км и менее - туман. В сухую погоду видимость может ухудшаться дымом, пылью или мглою.
Явления - указаны атмосферные явления, наблюдавшиеся в срок или в последний час перед сроком; фигурными скобками обозначены явления, наблюдавшиеся между сроками (за 1-3 часа до срока); квадратными скобками обозначены град или гололедные отложения с указанием их диаметра в мм.
Облачность - указаны через наклонную черту общая и нижняя облачность в баллах и высота нижней границы облаков в метрах; квадратными скобками обозначены формы облаков: Ci - перистые, Cs - перисто-слоистые, Cc - перисто-кучевые, Ac - высококучевые, As - высокослоистые, Sc - слоисто-кучевые, Ns - слоисто-дождевые, Cu - кучевые, Cb - кучево-дождевые. Подробнее классификацию облаков см. в Атласе облаков (PDF).
T - Температура воздуха - температура, измеренная на высоте 2 м над землей.
Td - Температура точки росы - температура, при понижении до которой содержащийся в воздухе водяной пар достигнет насыщения.
f - Относительная влажность воздуха - влажноcть воздуха, измеренная на высоте 2 м над землей.
Te - Эффективная температура - температура, которую ощущает одетый по сезону человек в тени. Характеристика душности погоды. При расчете учитывается влияние влажности воздуха и скорости ветра на теплоощущения человека.
Tes - Эффективная температура на солнце - температура, которую ощущает человек, с поправкой на солнечный нагрев. Характеристика знойности погоды. Зависит от высоты солнца над горизонтом, облачности и скорости ветра. Ночью, в пасмурную погоду, а также при ветре 12 м/с и более поправка равна нулю.
P - Атмосферное давление - приведенное к уровню моря атмосферное давление.
Po - Атмосферное давление - измеренное на уровне метеостанции атмосферное давление.
Tmin - Минимальная температура - минимум температуры воздуха на высоте 2 м над землей.
Tmax - Максимальная температура - максимум температуры воздуха на высоте 2 м над землей.
R - Количество осадков - Количество выпавших осадков за период времени, мм. При наведении курсора мыши на число - период времени, за который выпало указанное количество осадков.
R24 - Количество осадков - Количество выпавших осадков за 24 часа, мм.
S - Снежный покров - Высота снежного покрова, см. При наведении курсора мыши на число - состояние снежного покрова и степень покрытия местности в баллах.